Regional Weather Roundup
Issued by NWS

Home | Current Version | Previous Version | Graphics & Text | Print | Product List | Glossary On
Versions: 1 2 3 4 5 6 7 8 9 10 11 12 13 14 15 16 17 18 19 20 21 22 23 24 25 26 27 28 29 30 31 32 33 34 35 36 37 38 39 40 41 42 43 44 45 46 47 48 49 50
000
ASUS45 KTFX 012319
RWRMT
MONTANA HOURLY WEATHER ROUNDUP
NATIONAL WEATHER SERVICE GREAT FALLS MT
519 PM MDT WED OCT 1 2014

NOTE: "FAIR" INDICATES FEW OR NO CLOUDS BELOW 12000 FEET WITH NO
SIGNIFICANT WEATHER AND/OR OBSTRUCTIONS TO VISIBILITY.

* THESE STATIONS ARE NOT UNDER NWS QUALITY CONTROL. THEY DO NOT
   REPORT WEATHER SUCH AS PRECIPITATION OR FOG.

MTZ001>007-043-020000-
WEST OF THE DIVIDE
CITY           SKY/WX    TMP DP  RH WIND       PRES   REMARKS
KALISPELL      CLOUDY    55  34  45 W9        30.01S
MISSOULA       MOCLDY    55  32  42 W21       30.10R
BUTTE          FAIR      50  25  38 NW12G23   30.05R
MULLAN PASS    CLOUDY    37  34  89 VRB7      30.09F WCI  32
* ESSEX        N/A       48  41  77 NE2G9      N/A
* LINCOLN      N/A       53  27  37 SW8G19     N/A
* LOOKOUT PASS N/A       46  37  71 SE8        N/A
* POLSON       N/A       53  29  40 W4G10      N/A
* RONAN APT    PTCLDY    55  34  45 SW15G20    N/A
* SEELEY LAKE  N/A       50  31  48 W5G12      N/A
* THOMP F APT  MOCLDY    48  23  37 NW5G17     N/A
* YAAK HILL    N/A       63  32  31 S6G13      N/A
$$

MTZ008-052>055-020000-
SOUTHWEST MONTANA
CITY           SKY/WX    TMP DP  RH WIND       PRES   REMARKS
BOZEMAN        FAIR      52  30  43 VRB3      30.01F
DILLON         MOCLDY    55  25  31 W17       30.04S
W YELLOWSTONE  MOCLDY    46  25  44 W9        30.06S
* THREE FORKS  CLEAR     55  55 100 W8         N/A
* BOULDER HILL N/A       49  20  32 VRB2G9     N/A
* MONIDA PASS  N/A       46  23  40 NW15G21    N/A
* RAYNOLDS PAS N/A       44   3  18 N4G10      N/A
* WHITEHALL    N/A       57  28  33 W10G17     N/A
* WISE RIVER   N/A       49  23  36 NW14G28    N/A
$$

MTZ009>010-012-014-046-048-049-054-020000-
EAST SLOPES AND CENTRAL MONTANA
CITY           SKY/WX    TMP DP  RH WIND       PRES   REMARKS
CUT BANK       CLEAR     55  30  39 W33       29.87S
GREAT FALLS    MOCLDY    55  30  39 SW18G30   29.89S
HELENA         MOCLDY    59  27  29 W15G24    29.99S
MALMSTROM AFB  PTCLDY    57  30  36 W25G30    29.91S
* CONRAD       CLEAR     59  32  36 SW16G23    N/A
* DEARBORN     N/A       57  29  34 S17G31     N/A
* EAST GLACIER N/A       46  29  52 W29G40     N/A
* MONARCH      N/A       49  22  35 SW15G24    N/A
* PENDROY      N/A       54  23  30 W24G34     N/A
* ROGERS PASS  N/A       45  27  49 SE20G37    N/A
* SAINT MARY   N/A       51  31  46 SW9G27     N/A
* SWEET GRASS  N/A       58  26  29 W16G24     N/A
* WHITE SULPH  N/A       53  30  41 W6G15      N/A
$$

MTZ011-013-016-021-035-040-045-047-050-051-020000-
NORTH CENTRAL MONTANA
CITY           SKY/WX    TMP DP  RH WIND       PRES   REMARKS
HAVRE          PTCLDY    63  34  34 SW14      29.82F
LEWISTOWN      LGT RAIN  54  37  53 N7        29.93S
* CHINOOK      PTCLDY    63  34  34 SW6       29.83F
* FORT BENTON  CLEAR     63  30  29 SW15G23   29.86S
* CHESTER      N/A       60  28  30 W14G23     N/A
* DENTON       N/A       59  30  33 SW14G22    N/A
* JUDITH GAP   N/A       55  30  39 W17G23     N/A
* LOMA         N/A       62  28  28 SW14G24    N/A
$$

MTZ017>020-022>027-061-062-020000-
NORTHEAST MONTANA
CITY           SKY/WX    TMP DP  RH WIND       PRES   REMARKS
GLASGOW        PTCLDY    61  36  39 NW16      29.83R
GLENDIVE       MOCLDY    55  45  69 NW13G20   29.86R
JORDAN         PTCLDY    59  36  42 NW21      29.88R
SIDNEY         PTCLDY    57  45  64 NW13      29.83S
WOLF POINT     CLOUDY    61  45  56 W12G20    29.82S
* BEAVER HILL  N/A       54  42  64 W20        N/A
* CIRCLE       N/A       51  46  83 NW6        N/A
* LINDSAY DVD  N/A       52  43  72 W14G22     N/A
* NAVAJO       N/A       55  42  62 NW14G21    N/A
* SACO         N/A       61  34  36 NW14G20    N/A
$$

MTZ028>042-056>058-020000-
SOUTHCENTRAL AND SOUTHEAST MONTANA
CITY           SKY/WX    TMP DP  RH WIND       PRES   REMARKS
BAKER          CLOUDY    54  43  67 W14G20    29.88R
BILLINGS       MOCLDY    57  28  33 NW9       29.95R
LIVINGSTON     MOCLDY    55  32  42 SW17G26   29.99S
MILES CITY     MOCLDY    61  34  36 NW17      29.87R
* LAUREL APT   PTCLDY    55  30  39 N/A        N/A
* ROUNDUP APT  PTCLDY    57  30  36 N/A        N/A
* ALZADA       N/A       56  39  53 W11        N/A
* HYSHAM       N/A       58  23  26 NW9G14     N/A
* LAME DEER    N/A       52  30  43 NW11G17    N/A
* REED POINT   N/A       56  31  39 W18G25     N/A
* ROSCOE HILL  N/A       52  16  24 NW11G19    N/A
$$

REGIONAL REPORTS...DAKOTAS
CITY           SKY/WX    TMP DP  RH WIND       PRES   REMARKS
WILLISTON      CLOUDY    57  45  64 NW14      29.79R
DICKINSON      CLOUDY    55  46  72 NW8       29.80R
BEACH          N/A       54  46  74 NW15G21   29.85R
CROSBY         PTCLDY    54  46  74 NW13      29.76R
TIOGA          CLOUDY    54  50  86 W16G23    29.80R
WATFORD CITY   CLOUDY    55  45  69 NW12      29.78R
BISMARCK       CLOUDY    61  48  62 W13       29.78R
GRAND FORKS    CLOUDY    63  55  75 SW8       29.64R
FARGO          CLOUDY    64  50  61 W15       29.69R
BUFFALO SD     CLOUDY    54  43  67 W13       29.82R
RAPID CITY     CLOUDY    54  43  67 N13       29.90R
$$

REGIONAL REPORTS...WYOMING/IDAHO/WASHINGTON
CITY           SKY/WX    TMP DP  RH WIND       PRES   REMARKS
GILLETTE       CLOUDY    52  37  57 NW8       29.95R
SHERIDAN       CLOUDY    54  36  51 NW15      29.96R
CODY           MOCLDY    52  34  50 NE3       29.99R
YELLOWSTONE LA PTCLDY    36  28  73 NW7       30.10R WCI  30
SALMON         MOCLDY    57  30  36 NW8       30.07F
MULLAN PASS    CLOUDY    37  34  89 VRB7      30.09S WCI  32
SAND POINT     CLOUDY    59  37  44 SW9       30.03F
SPOKANE        MOCLDY    61  32  34 SW14G28   30.06S
$$

REGIONAL REPORTS...ALBERTA
CITY           SKY/WX    TMP DP  RH WIND       PRES   REMARKS
CALGARY        FAIR      59  21  23 W15G24    29.73F
LETHBRIDGE     PTCLDY    57  32  39 W29G38    29.79S
MEDICINE HAT   PTCLDY    63  34  34 W17       29.77S
EDMONTON       N/A       46  32  58 NW18G31   29.80S
WATERTON GATE  N/A       52  28  40 W26G37     N/A
CARDSTON       N/A       52  32  47 W17G26     N/A
MILK RIVER     N/A       59  28  31 W17G23     N/A
$$

REGIONAL REPORTS...SASKATCHEWAN
CITY           SKY/WX    TMP DP  RH WIND       PRES   REMARKS
SWIFT CURRENT  PTCLDY    55  30  39 NW15G21   29.77R
MOOSE JAW      FAIR      59  39  48 NW17      29.74R
REGINA         PTCLDY    57  41  55 NW20G28   29.71R
VAL MARIE      N/A       59  32  36 NW13       N/A
ASSINIBOIA     N/A       57  34  42 NW20G26    N/A
CORONACH       N/A       55  39  55 NW17G23    N/A

$$



USA.gov is the U.S. government's official web portal to all federal, state and local government web resources and services.